TimePST,TemperatureF,Dew PointF,Humidity,Sea Level PressureIn,VisibilityMPH,Wind Direction,Wind SpeedMPH,Gust SpeedMPH,PrecipitationIn,Events,Conditions,WindDirDegrees,DateUTC
12:56 AM,63.0,36.0,37,30.08,10.0,North,12.7,-,N/A,,Clear,350,2013-11-05 08:56:00
1:56 AM,59.0,32.0,36,30.08,10.0,SSW,3.5,-,N/A,,Clear,200,2013-11-05 09:56:00
2:56 AM,60.1,30.9,33,30.09,10.0,Calm,Calm,-,N/A,,Clear,0,2013-11-05 10:56:00
3:56 AM,53.1,39.9,61,30.11,10.0,West,8.1,-,N/A,,Clear,280,2013-11-05 11:56:00
4:56 AM,51.1,39.9,66,30.12,10.0,West,6.9,-,N/A,,Clear,270,2013-11-05 12:56:00
5:56 AM,52.0,36.0,54,30.14,10.0,WNW,5.8,-,N/A,,Clear,290,2013-11-05 13:56:00
6:56 AM,51.1,37.0,59,30.16,10.0,South,5.8,-,N/A,,Partly Cloudy,170,2013-11-05 14:56:00
7:56 AM,57.0,37.0,47,30.17,10.0,Calm,Calm,-,N/A,,Partly Cloudy,0,2013-11-05 15:56:00
8:56 AM,61.0,42.1,50,30.19,10.0,Calm,Calm,-,N/A,,Partly Cloudy,0,2013-11-05 16:56:00
9:56 AM,63.0,43.0,48,30.19,10.0,Calm,Calm,-,N/A,,Partly Cloudy,0,2013-11-05 17:56:00
10:56 AM,64.0,45.0,50,30.19,10.0,Calm,Calm,-,N/A,,Partly Cloudy,0,2013-11-05 18:56:00
11:56 AM,69.1,28.9,22,30.17,10.0,Calm,Calm,-,N/A,,Partly Cloudy,0,2013-11-05 19:56:00
12:56 PM,71.1,36.0,28,30.16,10.0,NNE,3.5,-,N/A,,Scattered Clouds,30,2013-11-05 20:56:00
1:56 PM,70.0,39.0,32,30.14,10.0,ENE,3.5,-,N/A,,Mostly Cloudy,70,2013-11-05 21:56:00
2:56 PM,69.1,39.9,35,30.14,10.0,Calm,Calm,-,N/A,,Scattered Clouds,0,2013-11-05 22:56:00
3:56 PM,66.9,37.0,33,30.14,10.0,West,10.4,-,N/A,,Scattered Clouds,280,2013-11-05 23:56:00
4:56 PM,64.9,33.1,31,30.14,10.0,WNW,8.1,-,N/A,,Partly Cloudy,290,2013-11-06 00:56:00
5:56 PM,64.0,30.9,29,30.15,10.0,WNW,13.8,-,N/A,,Partly Cloudy,290,2013-11-06 01:56:00
6:56 PM,60.1,35.1,39,30.17,10.0,West,9.2,-,N/A,,Clear,280,2013-11-06 02:56:00
7:56 PM,60.1,39.0,46,30.18,10.0,West,4.6,-,N/A,,Clear,270,2013-11-06 03:56:00
8:56 PM,57.9,37.9,47,30.20,10.0,Calm,Calm,-,N/A,,Clear,0,2013-11-06 04:56:00
9:56 PM,57.9,37.9,47,30.22,10.0,Calm,Calm,-,N/A,,Clear,0,2013-11-06 05:56:00
10:56 PM,55.9,44.1,64,30.22,10.0,West,5.8,-,N/A,,Clear,280,2013-11-06 06:56:00
11:56 PM,54.0,42.1,64,30.21,10.0,SSE,3.5,-,N/A,,Clear,150,2013-11-06 07:56:00